Moline, IL

1:57 PM CDT on April 24, 2018 (GMT -0500)
Quad-City International

Weather History for KMLI - September, 2012

Change the Weather History Date:

Saturday, September 8, 2012

  Actual Average Record
Temperature  
Mean Temperature 63 °F 69 °F  
Max Temperature 73 °F 80 °F 98 °F (1922)
Min Temperature 52 °F 57 °F 38 °F (1986)
Degree Days  
Heating Degree Days 2 1  
Month to date heating degree days 2 8  
Since 1 July heating degree days 5 16  
Cooling Degree Days 0 5  
Month to date cooling degree days 67 46  
Year to date cooling degree days 1186 929  
Growing Degree Days 12 (Base 50)    
Moisture  
Dew Point 49 °F    
Average Humidity 65    
Maximum Humidity 89    
Minimum Humidity 41    
Precipitation  
Precipitation 0.00 in 0.11 in 1.67 in (1948)
Month to date precipitation 1.82 0.92  
Year to date precipitation 19.86 28.08  
Snow  
Snow 0.00 in 0.00 in - ()
Month to date snowfall T 0.0  
Since 1 July snowfall T 0.0  
Since 1 September snowfall T 0.0  
Snow Depth 0.00 in    
Sea Level Pressure  
Sea Level Pressure 29.94 in    
Wind  
Wind Speed 11 mph (WNW)    
Max Wind Speed 22 mph    
Max Gust Speed 28 mph    
Visibility 10 miles    
Events      
T = Trace of Precipitation, MM = Missing Value Source: NWS Daily Summary

Daily Weather History Graph

Daily Weather History Graph

Search for Another Location

Airport or City:

Astronomy

Sep. 08, 2012 Rise Set
Actual Time 6:35 AM CDT 7:22 PM CDT
Civil Twilight 6:07 AM CDT 7:50 PM CDT
Nautical Twilight 5:34 AM CDT 8:23 PM CDT
Astronomical Twilight 4:59 AM CDT 8:57 PM CDT
Moon No Moon Rise 2:22 PM CDT (9/8)
Length of Visible Light 13h 42m
Length of Day
12h 46m
Waning Gibbous, 48% of the Moon is Illuminated
Sep 8
Waning Gibbous
Sep 15
New
Sep 22
First Quarter
Sep 29
Full
Oct 8
Last Quarter

Hourly Weather History & Observations

Time (CDT) Temp. Dew Point Humidity Pressure Visibility Wind Dir Wind Speed Gust Speed Precip Events Conditions
12:52 AM 59.0 °F 50.0 °F 72% 29.95 in 10.0 mi NNW 9.2 mph - N/A   Clear
1:52 AM 57.9 °F 48.9 °F 72% 29.96 in 10.0 mi NNW 8.1 mph - N/A   Clear
2:52 AM 55.0 °F 48.9 °F 80% 29.96 in 10.0 mi WNW 8.1 mph - N/A   Clear
3:52 AM 54.0 °F 48.9 °F 83% 29.97 in 10.0 mi NW 9.2 mph - N/A   Clear
4:52 AM 53.6 °F 48.2 °F 82% 29.97 in 10.0 mi WNW 8.1 mph - N/A   Clear
5:52 AM 52.0 °F 48.0 °F 86% 29.97 in 10.0 mi WNW 6.9 mph - N/A   Clear
6:52 AM 52.0 °F 46.9 °F 83% 29.99 in 10.0 mi NW 11.5 mph - N/A   Clear
7:52 AM 54.0 °F 48.0 °F 80% 30.00 in 10.0 mi NW 8.1 mph - N/A   Clear
8:52 AM 57.9 °F 48.9 °F 72% 30.00 in 10.0 mi WNW 9.2 mph - N/A   Clear
9:52 AM 61.0 °F 50.0 °F 67% 30.00 in 10.0 mi WNW 8.1 mph - N/A   Clear
10:52 AM 64.9 °F 50.0 °F 58% 30.00 in 10.0 mi WNW 12.7 mph 18.4 mph N/A   Clear
11:52 AM 66.9 °F 50.0 °F 54% 29.99 in 10.0 mi NW 12.7 mph 18.4 mph N/A   Clear
12:52 PM 69.1 °F 48.0 °F 47% 29.98 in 10.0 mi NW 12.7 mph - N/A   Clear
1:52 PM 71.1 °F 46.9 °F 42% 29.96 in 10.0 mi NW 15.0 mph 21.9 mph N/A   Clear
2:52 PM 71.1 °F 48.9 °F 45% 29.93 in 10.0 mi WNW 13.8 mph 21.9 mph N/A   Clear
3:52 PM 73.0 °F 48.9 °F 42% 29.92 in 10.0 mi WNW 15.0 mph 21.9 mph N/A   Partly Cloudy
4:52 PM 72.0 °F 48.0 °F 43% 29.89 in 10.0 mi West 15.0 mph 24.2 mph N/A   Clear
5:52 PM 72.0 °F 48.0 °F 43% 29.89 in 10.0 mi WNW 10.4 mph 19.6 mph N/A   Clear
6:52 PM 68.0 °F 50.0 °F 52% 29.88 in 10.0 mi WSW 6.9 mph - N/A   Clear
7:52 PM 64.9 °F 48.9 °F 56% 29.85 in 10.0 mi SW 9.2 mph - N/A   Clear
8:52 PM 64.9 °F 48.9 °F 56% 29.83 in 10.0 mi SSW 10.4 mph - N/A   Partly Cloudy
9:52 PM 66.0 °F 48.0 °F 52% 29.82 in 10.0 mi SW 12.7 mph - N/A   Mostly Cloudy
10:52 PM 66.9 °F 48.0 °F 51% 29.88 in 10.0 mi NNW 16.1 mph 24.2 mph N/A   Scattered Clouds
11:52 PM 64.0 °F 46.9 °F 54% 29.92 in 10.0 mi North 15.0 mph 25.3 mph N/A   Scattered Clouds